Fremont, MI

12:46 AM EST on December 11, 2019 (GMT -0500)
Fremont

Weather History for KFFX - October, 2019

Change the Weather History Date:

Monday, October 7, 2019

  Actual Average (WUND) Record (WUND)
Temperature  
Mean Temperature 55 °F -  
Max Temperature 66 °F - - (-1)
Min Temperature 44 °F - - (-1)
Degree Days  
Heating Degree Days 10    
Growing Degree Days 5 (Base 50)    
Moisture  
Dew Point 40 °F    
Average Humidity 63    
Maximum Humidity 98    
Minimum Humidity 16    
Precipitation  
Precipitation 0.00 in - - ()
Sea Level Pressure  
Sea Level Pressure 30.12 in    
Wind  
Wind Speed 5 mph ()    
Max Wind Speed 15 mph    
Max Gust Speed 20 mph    
Visibility 9.8 miles    
Events      
Averages and records for this station are not official NWS values.
T = Trace of Precipitation, MM = Missing Value Source: Averaged Metar Reports

Daily Weather History Graph

Daily Weather History Graph

Search for Another Location

Airport or City:

Astronomy

Oct. 07, 2019 Rise Set
Actual Time 7:48 AM EDT 7:14 PM EDT
Civil Twilight 7:19 AM EDT 7:43 PM EDT
Nautical Twilight 6:46 AM EDT 8:16 PM EDT
Astronomical Twilight 6:13 AM EDT 8:49 PM EDT
Moon 4:48 PM EDT (10/7) 1:27 AM EDT (10/7)
Length of Visible Light 12h 23m
Length of Day
11h 26m
Waxing Gibbous, 69% of the Moon is Illuminated
Oct 7
Waxing Gibbous
Oct 13
Full
Oct 21
Last Quarter
Oct 27
New
Nov 4
First Quarter

Hourly Weather History & Observations

Time (EDT) Temp. Windchill Dew Point Humidity Pressure Visibility Wind Dir Wind Speed Gust Speed Precip Events Conditions
12:15 AM 56.8 °F - 41.5 °F 57% 30.07 in 10.0 mi SW 8.1 mph - N/A   Clear
12:35 AM 56.1 °F - 41.9 °F 59% 30.06 in 10.0 mi SW 8.1 mph - N/A   Clear
12:36 AM 56.1 °F - 41.9 °F 59% 30.06 in 10.0 mi SW 8.1 mph - N/A   Clear
12:58 AM 55.6 °F - 41.9 °F 60% 30.07 in 10.0 mi SW 5.8 mph - N/A   Clear
1:17 AM 54.0 °F - 42.3 °F 65% 30.06 in 10.0 mi SW 5.8 mph - N/A   Clear
1:35 AM 53.6 °F - 42.4 °F 66% 30.06 in 10.0 mi SW 5.8 mph - N/A   Clear
1:55 AM 52.2 °F - 42.4 °F 69% 30.06 in 10.0 mi SW 4.6 mph - N/A   Clear
2:15 AM 52.7 °F - 43.2 °F 70% 30.06 in 10.0 mi WSW 4.6 mph - N/A   Clear
2:19 AM 52.7 °F - 43.2 °F 70% 30.06 in 10.0 mi WSW 4.6 mph - N/A   Clear
2:38 AM 52.3 °F - 42.8 °F 70% 30.06 in 10.0 mi WSW 3.5 mph - N/A   Clear
2:56 AM 52.2 °F - 42.8 °F 70% 30.06 in 10.0 mi WSW 5.8 mph - N/A   Clear
3:15 AM 52.2 °F - 42.8 °F 70% 30.06 in 10.0 mi WSW 4.6 mph - N/A   Clear
3:35 AM 52.0 °F - 42.3 °F 69% 30.05 in 10.0 mi SW 4.6 mph - N/A   Clear
3:36 AM 51.8 °F - 42.1 °F 69% 30.05 in 10.0 mi SW 5.8 mph - N/A   Clear
3:59 AM 51.8 °F - 42.1 °F 69% 30.05 in 10.0 mi WSW 6.9 mph - N/A   Clear
4:17 AM 52.7 °F - 42.3 °F 68% 30.05 in 10.0 mi WSW 5.8 mph - N/A   Clear
4:35 AM 52.0 °F - 42.8 °F 71% 30.06 in 10.0 mi WSW 5.8 mph - N/A   Clear
4:55 AM 51.1 °F - 43.7 °F 76% 30.07 in 10.0 mi SW 5.8 mph - N/A   Clear
5:15 AM 50.4 °F - 46.6 °F 87% 30.07 in 10.0 mi SW 4.6 mph - N/A   Clear
5:20 AM 50.0 °F - 46.6 °F 88% 30.07 in 10.0 mi SW 4.6 mph - N/A   Clear
5:38 AM 50.0 °F - 47.1 °F 90% 30.08 in 10.0 mi SW 5.8 mph - N/A   Clear
5:56 AM 48.9 °F - 46.4 °F 91% 30.08 in 10.0 mi SW 4.6 mph - N/A   Clear
6:15 AM 47.7 °F - 45.9 °F 93% 30.08 in 10.0 mi SW 4.6 mph - N/A   Clear
6:35 AM 48.6 °F - 46.6 °F 93% 30.09 in 10.0 mi SW 3.5 mph - N/A   Clear
6:59 AM 48.2 °F - 46.6 °F 94% 30.09 in 10.0 mi SSW 4.6 mph - N/A   Clear
7:17 AM 45.9 °F 43.6 °F 44.8 °F 96% 30.09 in 10.0 mi SW 4.6 mph - N/A   Clear
7:35 AM 46.4 °F 45.2 °F 45.5 °F 97% 30.09 in 10.0 mi WSW 3.5 mph - N/A   Clear
7:36 AM 46.6 °F - 45.7 °F 97% 30.09 in 10.0 mi SW 3.5 mph - N/A   Clear
7:55 AM 46.8 °F - 45.5 °F 95% 30.09 in 10.0 mi SW 3.5 mph - N/A   Clear
8:15 AM 44.8 °F - 43.5 °F 95% 30.09 in 10.0 mi Calm Calm - N/A   Clear
8:38 AM 46.2 °F - 45.7 °F 98% 30.09 in 10.0 mi Calm Calm - N/A   Clear
8:56 AM 49.5 °F - 48.0 °F 95% 30.09 in 10.0 mi SSW 3.5 mph - N/A   Clear
9:15 AM 50.9 °F - 48.4 °F 91% 30.09 in 10.0 mi Calm Calm - N/A   Clear
9:16 AM 50.9 °F - 48.6 °F 92% 30.09 in 10.0 mi SSW 3.5 mph - N/A   Clear
9:35 AM 54.3 °F - 47.8 °F 79% 30.10 in 10.0 mi WSW 3.5 mph - N/A   Clear
9:59 AM 56.5 °F - 45.0 °F 65% 30.11 in 10.0 mi WSW 5.8 mph - N/A   Clear
10:17 AM 57.7 °F - 44.6 °F 62% 30.11 in 10.0 mi WSW 5.8 mph - N/A   Clear
10:35 AM 59.4 °F - 44.2 °F 57% 30.12 in 10.0 mi WSW 6.9 mph - N/A   Clear
10:55 AM 60.8 °F - 42.8 °F 52% 30.12 in 10.0 mi West 9.2 mph - N/A   Clear
10:56 AM 61.0 °F - 42.1 °F 50% 30.12 in 10.0 mi West 10.4 mph - N/A   Clear
11:15 AM 61.9 °F - 40.8 °F 46% 30.12 in 10.0 mi WSW 6.9 mph - N/A   Clear
11:38 AM 62.6 °F - 38.5 °F 41% 30.12 in 10.0 mi West 9.2 mph - N/A   Clear
11:56 AM 63.5 °F - 36.9 °F 37% 30.12 in 10.0 mi West 11.5 mph 16.1 mph N/A   Clear
12:15 PM 64.0 °F - 36.1 °F 36% 30.12 in 10.0 mi West 10.4 mph - N/A   Clear
12:35 PM 64.6 °F - 36.0 °F 35% 30.12 in 10.0 mi West 5.8 mph - N/A   Clear
12:36 PM 64.6 °F - 36.3 °F 35% 30.12 in 10.0 mi West 4.6 mph - N/A   Clear
12:59 PM 64.9 °F - 34.7 °F 33% 30.12 in 10.0 mi WNW 4.6 mph - N/A   Clear
1:17 PM 63.7 °F - 34.0 °F 33% 30.12 in 10.0 mi WNW 10.4 mph - N/A   Clear
1:55 PM 64.6 °F - 31.6 °F 29% 30.12 in 10.0 mi NNW 10.4 mph - N/A   Clear
2:15 PM 65.1 °F - 32.0 °F 29% 30.12 in 10.0 mi WNW 9.2 mph - N/A   Clear
2:20 PM 65.3 °F - 33.1 °F 30% 30.12 in 10.0 mi NW 9.2 mph - N/A   Clear
2:38 PM 65.7 °F - 30.7 °F 27% 30.11 in 10.0 mi WNW 9.2 mph - N/A   Clear
2:56 PM 66.0 °F - 27.9 °F 24% 30.11 in 10.0 mi WNW 15.0 mph 18.4 mph N/A   Mostly Cloudy
3:15 PM 64.4 °F - 27.9 °F 25% 30.11 in 10.0 mi West 10.4 mph 18.4 mph N/A   Scattered Clouds
3:35 PM 63.9 °F - 25.7 °F 24% 30.12 in 10.0 mi NW 11.5 mph 19.6 mph N/A   Clear
3:59 PM 64.6 °F - 23.9 °F 21% 30.12 in 10.0 mi NW 13.8 mph 17.3 mph N/A   Clear
4:17 PM 65.3 °F - 21.6 °F 19% 30.13 in 10.0 mi WNW 12.7 mph 16.1 mph N/A   Clear
4:35 PM 64.6 °F - 17.1 °F 16% 30.13 in 10.0 mi NW 13.8 mph - N/A   Clear
4:55 PM 64.0 °F - 20.1 °F 19% 30.14 in 10.0 mi WNW 9.2 mph 16.1 mph N/A   Clear
4:56 PM 64.0 °F - 20.1 °F 19% 30.14 in 10.0 mi WNW 8.1 mph 16.1 mph N/A   Clear
5:15 PM 63.5 °F - 25.0 °F 23% 30.14 in 10.0 mi WNW 9.2 mph 18.4 mph N/A   Clear
5:38 PM 63.1 °F - 26.4 °F 25% 30.15 in 10.0 mi West 12.7 mph 17.3 mph N/A   Clear
5:56 PM 62.4 °F - 26.4 °F 26% 30.15 in 10.0 mi West 10.4 mph - N/A   Clear
6:15 PM 61.3 °F - 30.4 °F 31% 30.16 in 10.0 mi WNW 8.1 mph - N/A   Clear
6:16 PM 61.3 °F - 30.4 °F 31% 30.16 in 10.0 mi WNW 6.9 mph - N/A   Clear
6:35 PM 60.1 °F - 32.0 °F 35% 30.16 in 10.0 mi West 4.6 mph - N/A   Clear
6:36 PM 59.9 °F - 32.0 °F 35% 30.16 in 10.0 mi West 4.6 mph - N/A   Clear
6:59 PM 58.3 °F - 32.4 °F 38% 30.16 in 10.0 mi WSW 3.5 mph - N/A   Clear
7:17 PM 55.6 °F - 36.9 °F 49% 30.16 in 10.0 mi Calm Calm - N/A   Clear
7:36 PM 53.6 °F - 37.6 °F 55% 30.17 in 10.0 mi Calm Calm - N/A   Clear
7:55 PM 52.5 °F - 38.7 °F 59% 30.17 in 10.0 mi Calm Calm - N/A   Clear
8:15 PM 51.8 °F - 39.2 °F 62% 30.18 in 10.0 mi Calm Calm - N/A   Clear
8:38 PM 49.3 °F - 45.5 °F 87% 30.18 in 10.0 mi Calm Calm - N/A   Clear
8:56 PM 48.9 °F - 46.2 °F 90% 30.19 in 10.0 mi Calm Calm - N/A   Clear
9:15 PM 48.4 °F - 46.6 °F 93% 30.19 in 10.0 mi Calm Calm - N/A   Clear
9:16 PM 48.4 °F - 46.4 °F 93% 30.19 in 10.0 mi Calm Calm - N/A   Clear
9:35 PM 48.4 °F - 46.8 °F 94% 30.20 in 10.0 mi Calm Calm - N/A   Clear
9:36 PM 48.6 °F - 46.8 °F 93% 30.20 in 10.0 mi Calm Calm - N/A   Clear
9:59 PM 48.0 °F - 47.1 °F 97% 30.20 in 10.0 mi Calm Calm - N/A   Clear
10:17 PM 47.7 °F - 47.1 °F 98% 30.20 in 10.0 mi Calm Calm - N/A   Clear
10:35 PM 45.7 °F - 45.0 °F 97% 30.21 in 10.0 mi Calm Calm - N/A   Clear
10:55 PM 46.0 °F - 45.3 °F 97% 30.21 in 10.0 mi Calm Calm - N/A   Clear
11:15 PM 46.4 °F - 45.5 °F 97% 30.22 in 7.0 mi Calm Calm - N/A   Clear
11:38 PM 44.6 °F - 43.7 °F 97% 30.22 in 1.5 mi Calm Calm - N/A   Mist
11:55 PM 45.7 °F - 44.8 °F 97% 30.22 in 7.0 mi Calm Calm - N/A   Clear